星链-3663 (STARLINK-3663 )

导读 | 星芒AI

STARLINK-3663 是 SpaceX 星链计划中的一颗低轨通信卫星,属于第 17 批组网发射的星链卫星之一。该卫星于 2023 年 10 月 由猎鹰 9 号火箭送入近地轨道,旨在为全球用户提供高速互联网服务。星链系统通过部署大量卫星,构建覆盖全球的宽带网络,特别服务于偏远地区。STARLINK-3663 采用先进推进和通信技术,具备自主变轨和避障能力,有助于提升星链网络的稳定性和覆盖效率。

基本信息
目录编号:
51976
目录名称:
STARLINK-3663
国际标识:
2022-025W
轨道中心:
EARTH
卫星名称:
星链-3663
卫星全名:
星链-3663 (STARLINK-3663 )
卫星状态:
在轨 (已飞行1336 天)
发射日期:
2022-03-09 UTC
国别 :
美国 (US)
星等 :
--
轨道信息
数据来源 国际轨道数据
星历时间: 2025-11-04T20:00:03+0800
5小时前
查看轨道信息
半长轴: 6704.802km
偏心率: 0.0006425
轨道倾角: 53.205°
近地点辐角 165.369°
升交点赤经 158.422°
平近点角 171.663°
近地点: 322.359km
远地点: 330.975km
周期: 91.062分钟
每日圈数: 15.81335
详细信息
固有亮度:
5
最大亮度:
2.5
卫星平台:
Starlink v1.5
覆盖范围:
全球
运营商:
太空探索技术公司
运营商所在国:
美国
制造商(研发单位):
太空探索技术公司
制造商所在国:
美国
使用方式:
暂无
卫星简介
星链(Starlink)计划是由太空探索技术公司(SpaceX)提出的一个巨型低轨卫星互联网星座项目,计划在2019年至2024年间在太空搭建由约1.2万颗卫星组成的“星链”网络,其中1584颗将部署在地球上空550千米处的近地轨道,并从2020年开始工作。该卫星仍在工作。
2D轨道图
3D轨道图
轨道高度分析图
轨道倾角分析图
轨道综合分析图
查看轨道综合分析图